TimeCDT,TemperatureF,Dew PointF,Humidity,Sea Level PressureIn,VisibilityMPH,Wind Direction,Wind SpeedMPH,Gust SpeedMPH,PrecipitationIn,Events,Conditions,WindDirDegrees,DateUTC
12:15 AM,40.8,40.5,99,29.94,10.0,Calm,Calm,-,N/A,,Clear,0,2013-09-30 05:15:00
12:35 AM,40.6,40.3,99,29.94,10.0,Calm,Calm,-,N/A,,Clear,0,2013-09-30 05:35:00
12:55 AM,40.6,40.3,99,29.94,10.0,Calm,Calm,-,N/A,,Clear,0,2013-09-30 05:55:00
1:15 AM,39.7,39.4,99,29.94,10.0,Calm,Calm,-,N/A,,Clear,0,2013-09-30 06:15:00
1:35 AM,42.3,41.7,98,29.93,10.0,Calm,Calm,-,N/A,,Clear,0,2013-09-30 06:35:00
1:55 AM,45.1,42.6,91,29.93,10.0,Calm,Calm,-,N/A,,Clear,0,2013-09-30 06:55:00
2:15 AM,45.5,42.8,90,29.92,10.0,Calm,Calm,-,N/A,,Clear,0,2013-09-30 07:15:00
2:35 AM,46.2,43.3,90,29.91,10.0,Calm,Calm,-,N/A,,Clear,0,2013-09-30 07:35:00
2:55 AM,47.1,43.9,88,29.91,10.0,Calm,Calm,-,N/A,,Clear,0,2013-09-30 07:55:00
3:15 AM,47.1,43.7,88,29.91,10.0,Calm,Calm,-,N/A,,Clear,0,2013-09-30 08:15:00
3:35 AM,46.6,43.5,89,29.91,10.0,Calm,Calm,-,N/A,,Clear,0,2013-09-30 08:35:00
3:55 AM,47.5,43.9,87,29.91,10.0,South,3.5,-,N/A,,Clear,180,2013-09-30 08:55:00
4:15 AM,47.3,43.2,86,29.91,10.0,Calm,Calm,-,N/A,,Clear,0,2013-09-30 09:15:00
4:35 AM,46.8,43.3,88,29.90,10.0,South,3.5,-,N/A,,Clear,170,2013-09-30 09:35:00
4:55 AM,48.6,44.2,85,29.89,10.0,South,5.8,-,N/A,,Clear,180,2013-09-30 09:55:00
5:15 AM,48.6,44.1,84,29.89,10.0,South,4.6,-,N/A,,Clear,190,2013-09-30 10:15:00
5:35 AM,49.3,44.1,82,29.87,10.0,South,4.6,-,N/A,,Clear,180,2013-09-30 10:35:00
5:55 AM,49.6,44.1,81,29.87,10.0,South,4.6,-,N/A,,Clear,180,2013-09-30 10:55:00
6:15 AM,50.0,44.1,80,29.87,10.0,South,5.8,-,N/A,,Clear,180,2013-09-30 11:15:00
6:35 AM,50.4,44.1,79,29.87,10.0,South,5.8,-,N/A,,Clear,180,2013-09-30 11:35:00
6:55 AM,50.9,44.2,78,29.86,10.0,South,6.9,-,N/A,,Clear,190,2013-09-30 11:55:00
7:15 AM,51.8,44.1,75,29.86,10.0,SSW,5.8,-,N/A,,Clear,200,2013-09-30 12:15:00
7:35 AM,51.8,44.1,75,29.86,10.0,South,4.6,-,N/A,,Clear,190,2013-09-30 12:35:00
7:55 AM,52.2,44.1,74,29.85,10.0,South,8.1,-,N/A,,Clear,190,2013-09-30 12:55:00
8:15 AM,52.9,44.1,72,29.85,10.0,South,5.8,-,N/A,,Clear,190,2013-09-30 13:15:00
8:35 AM,55.2,44.6,67,29.85,10.0,South,5.8,-,N/A,,Clear,190,2013-09-30 13:35:00
8:55 AM,56.8,44.4,63,29.84,10.0,SSW,8.1,-,N/A,,Clear,200,2013-09-30 13:55:00
9:15 AM,58.6,44.4,59,29.84,10.0,SSW,8.1,18.4,N/A,,Clear,200,2013-09-30 14:15:00
9:35 AM,59.4,43.5,56,29.84,10.0,South,16.1,25.3,N/A,,Clear,190,2013-09-30 14:35:00
9:55 AM,60.6,43.9,54,29.84,10.0,SSW,9.2,19.6,N/A,,Clear,210,2013-09-30 14:55:00
10:15 AM,61.9,43.9,52,29.82,10.0,South,12.7,21.9,N/A,,Clear,190,2013-09-30 15:15:00
10:35 AM,63.7,44.1,49,29.81,10.0,SSW,9.2,19.6,N/A,,Clear,200,2013-09-30 15:35:00
10:55 AM,65.3,43.3,45,29.80,10.0,SSW,13.8,23.0,N/A,,Clear,210,2013-09-30 15:55:00
11:15 AM,65.3,42.4,43,29.80,10.0,SSW,16.1,27.6,N/A,,Clear,200,2013-09-30 16:15:00
11:35 AM,65.8,42.8,43,29.79,10.0,SSW,16.1,25.3,N/A,,Clear,200,2013-09-30 16:35:00
11:55 AM,66.4,42.8,42,29.79,10.0,South,13.8,27.6,N/A,,Clear,190,2013-09-30 16:55:00
12:15 PM,67.1,41.9,40,29.77,10.0,South,15.0,26.5,N/A,,Clear,180,2013-09-30 17:15:00
12:35 PM,67.5,41.4,39,29.77,10.0,South,12.7,25.3,N/A,,Clear,190,2013-09-30 17:35:00
12:55 PM,68.9,41.2,36,29.76,10.0,SSW,17.3,25.3,N/A,,Clear,200,2013-09-30 17:55:00
1:15 PM,68.0,41.5,38,29.76,10.0,SSW,11.5,21.9,N/A,,Clear,200,2013-09-30 18:15:00
1:35 PM,69.1,41.5,37,29.75,10.0,South,15.0,26.5,N/A,,Clear,190,2013-09-30 18:35:00
1:55 PM,69.8,40.8,35,29.75,10.0,South,13.8,31.1,N/A,,Clear,190,2013-09-30 18:55:00
2:15 PM,70.0,41.2,35,29.74,10.0,South,10.4,27.6,N/A,,Clear,180,2013-09-30 19:15:00
2:35 PM,70.5,41.4,35,29.74,10.0,SSW,10.4,28.8,N/A,,Clear,210,2013-09-30 19:35:00
2:55 PM,70.7,40.1,33,29.74,10.0,South,15.0,24.2,N/A,,Clear,190,2013-09-30 19:55:00
3:15 PM,70.5,40.1,33,29.73,10.0,SSW,15.0,26.5,N/A,,Clear,200,2013-09-30 20:15:00
3:35 PM,70.7,40.6,34,29.73,10.0,SSW,9.2,25.3,N/A,,Clear,200,2013-09-30 20:35:00
3:55 PM,68.9,41.2,36,29.73,10.0,SSW,15.0,21.9,N/A,,Clear,210,2013-09-30 20:55:00
4:15 PM,68.0,41.4,38,29.73,10.0,South,10.4,21.9,N/A,,Clear,190,2013-09-30 21:15:00
4:35 PM,67.5,41.0,38,29.73,10.0,SSW,13.8,19.6,N/A,,Clear,210,2013-09-30 21:35:00
4:55 PM,67.5,41.2,38,29.73,10.0,SSW,10.4,23.0,N/A,,Clear,200,2013-09-30 21:55:00
5:15 PM,68.2,40.5,36,29.73,10.0,SSW,13.8,26.5,N/A,,Clear,200,2013-09-30 22:15:00
5:35 PM,67.6,41.2,38,29.73,10.0,SSW,6.9,20.7,N/A,,Clear,200,2013-09-30 22:35:00
5:55 PM,66.7,41.5,40,29.74,10.0,SSW,11.5,-,N/A,,Clear,210,2013-09-30 22:55:00
6:15 PM,65.1,42.4,44,29.74,10.0,SSW,6.9,-,N/A,,Clear,200,2013-09-30 23:15:00
6:35 PM,63.9,42.4,46,29.75,10.0,SSW,9.2,-,N/A,,Clear,210,2013-09-30 23:35:00
6:55 PM,63.0,42.8,48,29.75,10.0,South,4.6,-,N/A,,Clear,190,2013-09-30 23:55:00
7:15 PM,62.1,43.2,50,29.75,10.0,South,5.8,-,N/A,,Clear,190,2013-10-01 00:15:00
7:35 PM,61.2,43.3,52,29.76,10.0,South,6.9,-,N/A,,Clear,190,2013-10-01 00:35:00
7:55 PM,60.6,43.5,53,29.76,10.0,SSW,6.9,-,N/A,,Clear,200,2013-10-01 00:55:00
8:15 PM,59.9,43.5,55,29.76,10.0,SSW,6.9,-,N/A,,Clear,200,2013-10-01 01:15:00
8:35 PM,59.9,43.5,55,29.76,10.0,South,5.8,-,N/A,,Clear,190,2013-10-01 01:35:00
8:55 PM,59.9,43.7,55,29.77,10.0,SSW,4.6,-,N/A,,Clear,210,2013-10-01 01:55:00
9:15 PM,59.9,43.7,55,29.77,10.0,SSW,6.9,-,N/A,,Clear,210,2013-10-01 02:15:00
9:35 PM,59.2,43.7,57,29.77,10.0,SSW,4.6,-,N/A,,Clear,200,2013-10-01 02:35:00
9:55 PM,59.0,43.7,57,29.76,10.0,SSW,5.8,-,N/A,,Clear,200,2013-10-01 02:55:00
10:15 PM,59.2,44.1,57,29.77,10.0,SSW,5.8,-,N/A,,Clear,200,2013-10-01 03:15:00
10:35 PM,59.0,44.6,59,29.77,10.0,SSW,4.6,-,N/A,,Clear,200,2013-10-01 03:35:00
10:55 PM,59.0,45.0,60,29.77,10.0,South,4.6,-,N/A,,Clear,190,2013-10-01 03:55:00
11:15 PM,58.6,45.1,61,29.77,10.0,SSW,4.6,-,N/A,,Clear,200,2013-10-01 04:15:00
11:35 PM,58.5,45.3,62,29.76,10.0,SSW,4.6,-,N/A,,Clear,200,2013-10-01 04:35:00
11:55 PM,58.1,45.5,63,29.75,10.0,South,4.6,-,N/A,,Clear,190,2013-10-01 04:55:00